Bryce, UT

7:45 PM MDT on September 24, 2016 (GMT -0600)
Bryce Canyon

Weather History for KBCE - January, 2012

Change the Weather History Date:

Monday, January 30, 2012

  Actual Average Record
Temperature  
Mean Temperature 24 °F -  
Max Temperature 42 °F 35 °F 52 °F (2003)
Min Temperature 6 °F 7 °F -25 °F (1979)
Degree Days  
Heating Degree Days 41    
Moisture  
Dew Point 14 °F    
Average Humidity 73    
Maximum Humidity 100    
Minimum Humidity 35    
Precipitation  
Precipitation 0.00 in - - ()
Sea Level Pressure  
Sea Level Pressure 30.11 in    
Wind  
Wind Speed 5 mph (SSW)    
Max Wind Speed 10 mph    
Max Gust Speed -    
Visibility 10 miles    
Events      
Averages and records for this station are not official NWS values.
T = Trace of Precipitation, MM = Missing Value Source: NWS Daily Summary

Daily Weather History Graph

Daily Weather History Graph

Search for Another Location

Airport or City:

Trip Planner

Search our weather history database for the weather conditions in past years. The results will help you decide how hot, cold, wet, or windy it might be!

Date:

Astronomy

Jan. 30, 2012 Rise Set
Actual Time 7:34 AM MST 5:49 PM MST
Civil Twilight 7:06 AM MST 6:17 PM MST
Nautical Twilight 6:35 AM MST 6:48 PM MST
Astronomical Twilight 6:04 AM MST 7:19 PM MST
Moon 11:08 AM MST (1/30) 12:28 AM MST (1/30)
Length of Visible Light 11h 10m
Length of Day
10h 15m
Waxing Crescent, 46% of the Moon is Illuminated
Jan 30
Waxing Crescent
Jan 30
First Quarter
Feb 7
Full
Feb 14
Last Quarter
Feb 21
New

Hourly Weather History & Observations

Time (MST) Temp. Windchill Dew Point Humidity Pressure Visibility Wind Dir Wind Speed Gust Speed Precip Events Conditions
12:53 AM 9.0 °F 0.6 °F 8.1 °F 96% 30.22 in 10.0 mi SW 4.6 mph - N/A   Clear
1:53 AM 6.1 °F -4.3 °F 6.1 °F 100% 30.22 in 10.0 mi WSW 5.8 mph - N/A   Clear
2:53 AM 7.0 °F -1.7 °F 6.1 °F 96% 30.19 in 10.0 mi SW 4.6 mph - N/A   Clear
3:53 AM 6.1 °F -2.8 °F 5.0 °F 95% 30.18 in 10.0 mi WSW 4.6 mph - N/A   Clear
4:53 AM 8.1 °F -0.5 °F 6.1 °F 92% 30.17 in 10.0 mi WSW 4.6 mph - N/A   Clear
5:53 AM 7.0 °F - 6.1 °F 96% 30.18 in 10.0 mi Calm Calm - N/A   Clear
7:53 AM 10.0 °F 3.6 °F 8.1 °F 92% 30.24 in 10.0 mi WSW 3.5 mph - N/A   Clear
8:53 AM 17.1 °F - 14.0 °F 88% 30.21 in 10.0 mi Calm Calm - N/A   Clear
9:53 AM 21.0 °F 16.2 °F 17.1 °F 85% 30.18 in 10.0 mi SSW 3.5 mph - N/A   Clear
10:20 AM - - - N/A% - - SSE 8.1 mph - N/A   Mostly Cloudy
10:53 AM 34.0 °F - 15.1 °F 46% 30.10 in 10.0 mi Calm Calm - N/A   Clear
11:53 AM 37.9 °F 30.9 °F 12.0 °F 35% 30.09 in 10.0 mi SE 10.4 mph - N/A   Clear
1:53 PM 39.9 °F 35.1 °F 14.0 °F 35% 30.04 in 10.0 mi SE 6.9 mph - N/A   Clear
2:53 PM 41.0 °F 35.2 °F 15.1 °F 35% 30.01 in 10.0 mi SE 9.2 mph - N/A   Clear
3:53 PM 42.1 °F 37.7 °F 17.1 °F 37% 30.01 in 10.0 mi SE 6.9 mph - N/A   Clear
4:53 PM 39.0 °F 34.0 °F 19.0 °F 45% 30.01 in 10.0 mi SE 6.9 mph - N/A   Clear
5:53 PM 30.0 °F - 18.0 °F 61% 30.09 in 10.0 mi Calm Calm - N/A   Clear
6:53 PM 24.1 °F 19.7 °F 19.9 °F 84% 30.12 in 10.0 mi WSW 3.5 mph - N/A   Clear
7:53 PM 26.1 °F 18.4 °F 21.9 °F 84% 30.12 in 10.0 mi West 6.9 mph - N/A   Mostly Cloudy
8:53 PM 28.0 °F - 19.9 °F 72% 30.06 in 10.0 mi Calm Calm - N/A   Overcast
9:53 PM 21.9 °F 12.5 °F 18.0 °F 85% 30.08 in 10.0 mi WSW 8.1 mph - N/A   Partly Cloudy
10:53 PM 21.9 °F 17.2 °F 17.1 °F 82% 30.02 in 10.0 mi SSW 3.5 mph - N/A   Clear
11:53 PM 23.0 °F 15.8 °F 16.0 °F 74% 29.99 in 10.0 mi West 5.8 mph - N/A   Clear